Orbital elements of FENGYUN 1C DEB
| Launched | 9 May 1999 |
| Flight ended | – |
| Launch site | Taiyuan Space Center, PRC |
| Owner | People's Republic of China |
| NORAD ID | 30023 |
| Date fetched |
Epoch osculation |
Inc. [°] |
Ecc. | RA asc node [hr] |
Arg Peri. [°] |
Mean anom [°] |
Mean motion [rev/day] |
Abs. mag |
| Date fetched |
Epoch osculation |
Inc. [°] |
Ecc. | RA asc node [hr] |
Arg Peri. [°] |
Mean anom [°] |
Mean motion [rev/day] |
Abs. mag |
| 2026 May 08 17:57 | 2026 May 05 09:11:57 | 99.2893 | 0.00470 | 21.9418 | 23.5092 | 99.5417 | 14.12099 | – |
| 2026 May 07 17:58 | 2026 May 05 09:11:57 | 99.2893 | 0.00470 | 21.9418 | 23.5092 | 99.5417 | 14.12099 | – |
| 2026 May 06 17:57 | 2026 May 05 09:11:57 | 99.2893 | 0.00470 | 21.9418 | 23.5092 | 99.5417 | 14.12099 | – |
| 2026 May 05 17:57 | 2026 May 05 09:11:57 | 99.2893 | 0.00470 | 21.9418 | 23.5092 | 99.5417 | 14.12099 | – |
| 2026 May 04 17:57 | 2026 Apr 30 11:35:07 | 99.2900 | 0.00472 | 21.6034 | 37.0129 | 99.5417 | 14.12099 | – |
| 2026 May 03 17:57 | 2026 Apr 30 11:35:07 | 99.2900 | 0.00472 | 21.6034 | 37.0129 | 99.5417 | 14.12099 | – |
| 2026 May 02 17:57 | 2026 Apr 30 11:35:07 | 99.2900 | 0.00472 | 21.6034 | 37.0129 | 99.5417 | 14.12099 | – |
| 2026 May 01 17:56 | 2026 Apr 30 11:35:07 | 99.2900 | 0.00472 | 21.6034 | 37.0129 | 99.5417 | 14.12099 | – |
| 2026 Apr 30 17:56 | 2026 Apr 30 11:35:07 | 99.2900 | 0.00472 | 21.6034 | 37.0129 | 99.5417 | 14.12099 | – |
| 2026 Apr 29 17:57 | 2026 Apr 24 12:41:33 | 99.2908 | 0.00474 | 21.1923 | 53.3779 | 99.5417 | 14.12099 | – |
| 2026 Apr 28 17:56 | 2026 Apr 24 12:41:33 | 99.2908 | 0.00474 | 21.1923 | 53.3779 | 99.5417 | 14.12099 | – |
| 2026 Apr 27 17:58 | 2026 Apr 24 12:41:33 | 99.2908 | 0.00474 | 21.1923 | 53.3779 | 99.5417 | 14.12099 | – |
| 2026 Apr 26 17:58 | 2026 Apr 24 12:41:33 | 99.2908 | 0.00474 | 21.1923 | 53.3779 | 99.5417 | 14.12099 | – |
| 2026 Apr 25 17:58 | 2026 Apr 24 12:41:33 | 99.2908 | 0.00474 | 21.1923 | 53.3779 | 99.5417 | 14.12099 | – |
| 2026 Apr 24 17:59 | 2026 Apr 24 12:41:33 | 99.2908 | 0.00474 | 21.1923 | 53.3779 | 99.5417 | 14.12099 | – |
| 2026 Apr 23 17:57 | 2026 Apr 19 00:31:19 | 99.2912 | 0.00475 | 20.8121 | 68.4835 | 99.5417 | 14.12099 | – |
| 2026 Apr 22 17:57 | 2026 Apr 19 00:31:19 | 99.2912 | 0.00475 | 20.8121 | 68.4835 | 99.5417 | 14.12099 | – |
| 2026 Apr 21 17:57 | 2026 Apr 19 00:31:19 | 99.2912 | 0.00475 | 20.8121 | 68.4835 | 99.5417 | 14.12099 | – |
| 2026 Apr 20 17:57 | 2026 Apr 19 00:31:19 | 99.2912 | 0.00475 | 20.8121 | 68.4835 | 99.5417 | 14.12099 | – |
| 2026 Apr 19 17:58 | 2026 Apr 19 00:31:19 | 99.2912 | 0.00475 | 20.8121 | 68.4835 | 99.5417 | 14.12099 | – |
| 2026 Apr 18 17:56 | 2026 Apr 13 01:39:40 | 99.2920 | 0.00475 | 20.4010 | 84.7918 | 99.5417 | 14.12099 | – |
| 2026 Apr 16 17:57 | 2026 Apr 13 01:39:40 | 99.2920 | 0.00475 | 20.4010 | 84.7918 | 99.5417 | 14.12099 | – |
| 2026 Apr 14 17:57 | 2026 Apr 13 01:39:40 | 99.2920 | 0.00475 | 20.4010 | 84.7918 | 99.5417 | 14.12099 | – |
| 2026 Apr 13 17:57 | 2026 Apr 13 01:39:40 | 99.2920 | 0.00475 | 20.4010 | 84.7918 | 99.5417 | 14.12099 | – |
| 2026 Apr 12 17:57 | 2026 Apr 08 02:28:06 | 99.2923 | 0.00475 | 20.0580 | 98.3882 | 99.5417 | 14.12099 | – |
| 2026 Apr 11 17:57 | 2026 Apr 08 02:28:06 | 99.2923 | 0.00475 | 20.0580 | 98.3882 | 99.5417 | 14.12099 | – |